TimeCST,TemperatureF,Dew PointF,Humidity,Sea Level PressureIn,VisibilityMPH,Wind Direction,Wind SpeedMPH,Gust SpeedMPH,PrecipitationIn,Events,Conditions,WindDirDegrees,DateUTC
12:15 AM,57.2,57.2,100,29.95,9.0,SSE,4.6,-,0.00,,Mostly Cloudy,160,2012-12-07 06:15:00
12:35 AM,57.2,57.2,100,29.94,9.0,SSE,5.8,-,0.00,,Mostly Cloudy,150,2012-12-07 06:35:00
12:55 AM,57.2,57.2,100,29.94,7.0,SSE,5.8,-,N/A,,Overcast,150,2012-12-07 06:55:00
1:15 AM,57.2,57.2,100,29.94,8.0,South,4.6,-,0.00,,Mostly Cloudy,170,2012-12-07 07:15:00
1:35 AM,57.2,57.2,100,29.94,8.0,SSE,5.8,-,0.00,,Mostly Cloudy,150,2012-12-07 07:35:00
1:55 AM,57.2,57.2,100,29.94,8.0,SSE,5.8,-,0.00,,Mostly Cloudy,160,2012-12-07 07:55:00
2:15 AM,57.2,57.2,100,29.94,10.0,SSE,4.6,-,0.00,,Mostly Cloudy,160,2012-12-07 08:15:00
2:35 AM,57.2,57.2,100,29.94,9.0,SSE,4.6,-,0.00,,Mostly Cloudy,160,2012-12-07 08:35:00
2:55 AM,57.2,57.2,100,29.93,10.0,South,5.8,-,0.00,,Mostly Cloudy,170,2012-12-07 08:55:00
3:15 AM,57.2,57.2,100,29.93,10.0,SSE,4.6,-,0.00,,Mostly Cloudy,160,2012-12-07 09:15:00
3:35 AM,57.2,57.2,100,29.93,10.0,SSE,5.8,-,0.00,,Mostly Cloudy,160,2012-12-07 09:35:00
3:55 AM,57.2,57.2,100,29.92,10.0,SSE,4.6,-,0.00,,Mostly Cloudy,160,2012-12-07 09:55:00
4:15 AM,57.2,57.2,100,29.92,8.0,SSE,5.8,-,0.00,,Mostly Cloudy,150,2012-12-07 10:15:00
4:35 AM,57.2,57.2,100,29.92,10.0,SSE,4.6,-,0.00,,Overcast,160,2012-12-07 10:35:00
4:55 AM,57.2,57.2,100,29.93,10.0,SSE,5.8,-,0.00,,Mostly Cloudy,160,2012-12-07 10:55:00
5:15 AM,57.2,57.2,100,29.93,9.0,SSE,6.9,-,0.00,,Mostly Cloudy,160,2012-12-07 11:15:00
5:35 AM,57.2,57.2,100,29.93,10.0,SSE,4.6,-,N/A,,Overcast,160,2012-12-07 11:35:00
5:55 AM,55.4,55.4,100,29.93,10.0,South,5.8,-,0.00,,Mostly Cloudy,170,2012-12-07 11:55:00
6:50 AM,55.4,55.4,100,29.95,7.0,South,5.8,-,N/A,,Overcast,180,2012-12-07 12:50:00
7:50 AM,57.2,57.2,100,29.96,7.0,South,5.8,-,N/A,,Overcast,180,2012-12-07 13:50:00
8:50 AM,57.2,57.2,100,29.97,5.0,South,6.9,-,N/A,,Overcast,180,2012-12-07 14:50:00
9:05 AM,57.2,57.2,100,29.98,5.0,South,8.1,-,N/A,,Overcast,190,2012-12-07 15:05:00
9:55 AM,57.2,57.2,100,29.97,5.0,South,9.2,-,N/A,,Overcast,170,2012-12-07 15:55:00
10:50 AM,59.0,59.0,100,29.95,5.0,SSW,5.8,-,N/A,,Overcast,200,2012-12-07 16:50:00
11:50 AM,60.8,60.8,100,29.92,7.0,SSW,6.9,-,N/A,,Overcast,210,2012-12-07 17:50:00
12:28 PM,62.6,62.6,100,29.91,7.0,South,8.1,-,N/A,,Mostly Cloudy,180,2012-12-07 18:28:00
12:55 PM,64.4,62.6,94,29.88,8.0,SSW,8.1,-,N/A,,Mostly Cloudy,210,2012-12-07 18:55:00
1:50 PM,64.4,60.8,88,29.86,10.0,South,9.2,-,N/A,,Mostly Cloudy,180,2012-12-07 19:50:00
2:50 PM,66.2,57.2,73,29.86,10.0,South,11.5,-,N/A,,Mostly Cloudy,190,2012-12-07 20:50:00
3:50 PM,66.2,57.2,73,29.86,10.0,SSW,9.2,-,N/A,,Mostly Cloudy,200,2012-12-07 21:50:00
4:50 PM,62.6,57.2,82,29.87,10.0,SSW,5.8,-,N/A,,Mostly Cloudy,200,2012-12-07 22:50:00
5:50 PM,59.0,57.2,94,29.88,10.0,South,5.8,-,N/A,,Clear,190,2012-12-07 23:50:00
6:50 PM,57.2,57.2,100,29.89,10.0,Calm,Calm,-,N/A,,Clear,0,2012-12-08 00:50:00
7:50 PM,57.2,57.2,100,29.91,10.0,Calm,Calm,-,N/A,,Mostly Cloudy,0,2012-12-08 01:50:00
8:15 PM,57.2,57.2,100,29.91,10.0,Calm,Calm,-,0.00,,Mostly Cloudy,0,2012-12-08 02:15:00
8:35 PM,57.2,57.2,100,29.92,8.0,West,5.8,-,0.00,,Mostly Cloudy,280,2012-12-08 02:35:00
8:55 PM,59.0,57.2,94,29.92,8.0,West,3.5,-,0.00,,Mostly Cloudy,260,2012-12-08 02:55:00
9:15 PM,57.2,57.2,100,29.92,10.0,Calm,Calm,-,0.00,,Mostly Cloudy,0,2012-12-08 03:15:00
9:35 PM,57.2,57.2,100,29.92,7.0,Calm,Calm,-,0.00,,Partly Cloudy,0,2012-12-08 03:35:00
9:55 PM,57.2,57.2,100,29.92,8.0,SE,4.6,-,0.00,,Mostly Cloudy,140,2012-12-08 03:55:00
10:15 PM,57.2,57.2,100,29.91,10.0,SE,4.6,-,0.00,,Mostly Cloudy,130,2012-12-08 04:15:00
10:35 PM,57.2,57.2,100,29.91,7.0,SE,6.9,-,0.00,,Overcast,140,2012-12-08 04:35:00
10:55 PM,57.2,57.2,100,29.91,8.0,Calm,Calm,-,N/A,,Overcast,0,2012-12-08 04:55:00
11:15 PM,57.2,57.2,100,29.91,8.0,SSE,4.6,-,0.00,,Overcast,160,2012-12-08 05:15:00
11:35 PM,57.2,57.2,100,29.91,10.0,SSE,4.6,-,0.00,,Overcast,160,2012-12-08 05:35:00
11:55 PM,57.2,57.2,100,29.90,10.0,Calm,Calm,-,0.00,,Overcast,0,2012-12-08 05:55:00